Location: ???? ????
(41.4149°N, 22.8816°E)
Time: 14:40:54
(UTC+00:00)

Cosmos 1867 - Pass Details

Date: 14 July 2020
Orbit: 778 x 798 km, 65.0° (Epoch: 03 August)

Event Time Altitude Azimuth Distance (km) Brightness Sun altitude
Exits shadow 02:07:16 10° 206° (SSW) 2,328 5.4 -10.0°
Maximum altitude 02:12:37 80° 120° (ESE) 810 3.7 -9.2°
Drops below altitude 10° 02:18:05 10° 35° (NE) 2,372 7.5 -8.4°
Sets 02:20:31 0° 34° (NE) 3,307 8.5 -8.1°
